Location: Waco, TX
(31.5480°N, 97.1670°W)
Time: 14:56:51
(UTC-05:00)

ISS - Pass Details

Date: 16 August 2019
Orbit: 410 x 421 km, 51.6° (Epoch: 22 August)

Event Time Altitude Azimuth Distance (km) Brightness Sun altitude
Rises 11:12:43 0° 270° (W) 2,349 -0.3 53.3°
Reaches altitude 10° 11:15:49 10° 302° (WNW) 1,492 -1.2 53.9°
Maximum altitude 11:17:18 12° 328° (NNW) 1,357 -1.3 54.2°
Drops below altitude 10° 11:18:48 10° 355° (N) 1,497 -1.0 54.5°
Sets 11:21:56 0° 26° (NNE) 2,366 0.1 55.1°
